Greenville, AL

1:42 PM CDT on April 24, 2017 (GMT -0500)
Greenville Municipal

Weather History for KPRN - December, 2012

Change the Weather History Date:

Thursday, December 20, 2012

  Actual Average Record
Temperature  
Mean Temperature 58 °F -  
Max Temperature 71 °F 63 °F 78 °F (1978)
Min Temperature 42 °F 37 °F 15 °F (1945)
Degree Days  
Heating Degree Days 8    
Growing Degree Days 8 (Base 50)    
Moisture  
Dew Point 50 °F    
Average Humidity 74    
Maximum Humidity 97    
Minimum Humidity 30    
Precipitation  
Precipitation 0.55 in - - ()
Sea Level Pressure  
Sea Level Pressure 29.89 in    
Wind  
Wind Speed 10 mph (SW)    
Max Wind Speed 25 mph    
Max Gust Speed 40 mph    
Visibility 8 miles    
Events Rain    
Averages and records for this station are not official NWS values.
T = Trace of Precipitation, MM = Missing Value Source: NWS Daily Summary

Daily Weather History Graph

Daily Weather History Graph

Search for Another Location

Airport or City:

Trip Planner

Search our weather history database for the weather conditions in past years. The results will help you decide how hot, cold, wet, or windy it might be!

Date:

Astronomy

Dec. 20, 2012 Rise Set
Actual Time 6:42 AM CST 4:46 PM CST
Civil Twilight 6:15 AM CST 5:13 PM CST
Nautical Twilight 5:44 AM CST 5:43 PM CST
Astronomical Twilight 5:14 AM CST 6:13 PM CST
Moon 11:47 AM CST (12/20) No Moon Set
Length of Visible Light 10h 58m
Length of Day
10h 04m
First Quarter, 55% of the Moon is Illuminated
Dec 20
First Quarter
Dec 28
Full
Jan 4
Last Quarter
Jan 11
New
Jan 18
First Quarter

Hourly Weather History & Observations

Time (CST) Temp. Windchill Dew Point Humidity Pressure Visibility Wind Dir Wind Speed Gust Speed Precip Events Conditions
12:56 AM 55.0 °F - 52.0 °F 89% 29.94 in 10.0 mi SE 6.9 mph - N/A   Scattered Clouds
1:21 AM 55.4 °F - 53.6 °F 94% 29.96 in 10.0 mi SE 4.6 mph - N/A   Mostly Cloudy
1:56 AM 55.9 °F - 53.1 °F 90% 29.94 in 10.0 mi SE 5.8 mph - N/A   Overcast
2:11 AM 55.4 °F - 53.6 °F 94% 29.94 in 10.0 mi Variable 5.8 mph - N/A   Overcast
2:42 AM 57.2 °F - 53.6 °F 88% 29.92 in 10.0 mi Variable 5.8 mph - N/A   Overcast
2:56 AM 59.0 °F - 55.0 °F 87% 29.91 in 10.0 mi SE 8.1 mph - N/A   Overcast
3:56 AM 60.1 °F - 57.9 °F 93% 29.88 in 10.0 mi SSE 8.1 mph 18.4 mph N/A   Overcast
4:37 AM 60.8 °F - 57.2 °F 88% 29.88 in 8.0 mi SSE 9.2 mph - 0.01 in Rain Light Rain
4:56 AM 60.1 °F - 57.9 °F 93% 29.88 in 6.0 mi SSE 10.4 mph - 0.03 in Rain Light Rain
5:56 AM 61.0 °F - 59.0 °F 93% 29.86 in 9.0 mi SSE 10.4 mph - 0.00 in   Overcast
6:56 AM 62.1 °F - 61.0 °F 96% 29.84 in 6.0 mi SSE 11.5 mph 19.6 mph N/A   Overcast
7:56 AM 63.0 °F - 62.1 °F 97% 29.81 in 4.0 mi SSE 9.2 mph 17.3 mph 0.04 in Rain Light Rain
8:56 AM 66.0 °F - 64.9 °F 96% 29.78 in 7.0 mi SSE 12.7 mph - 0.05 in Rain Light Rain
9:11 AM 66.2 °F - 64.4 °F 94% 29.81 in 1.8 mi SSW 10.4 mph 20.7 mph 0.06 in Rain Heavy Rain
9:23 AM 68.0 °F - 66.2 °F 94% 29.79 in 0.8 mi South 18.4 mph 25.3 mph 0.30 in Rain Heavy Rain
9:32 AM 69.8 °F - 66.2 °F 88% 29.80 in 2.0 mi SSW 19.6 mph 33.4 mph 0.31 in Rain Light Rain
9:39 AM 69.8 °F - 66.2 °F 88% 29.80 in 10.0 mi SSW 11.5 mph 27.6 mph 0.31 in Rain Light Rain
9:51 AM 71.6 °F - 66.2 °F 83% 29.79 in 10.0 mi SSW 16.1 mph 26.5 mph 0.31 in   Overcast
9:56 AM 71.1 °F - 66.9 °F 87% 29.78 in 10.0 mi SSW 12.7 mph 24.2 mph 0.31 in   Overcast
10:56 AM 63.0 °F - 60.1 °F 90% 29.81 in 1.2 mi West 25.3 mph 40.3 mph 0.07 in Rain Heavy Rain
11:03 AM 60.8 °F - 51.8 °F 72% 29.82 in 1.2 mi West 20.7 mph 33.4 mph 0.03 in Rain Rain
11:05 AM 59.0 °F - 51.8 °F 77% 29.82 in 2.0 mi West 12.7 mph 33.4 mph 0.04 in Rain Heavy Rain
11:56 AM 59.0 °F - 46.9 °F 64% 29.78 in 10.0 mi West 9.2 mph 20.7 mph 0.05 in   Overcast
12:56 PM 62.1 °F - 45.0 °F 53% 29.77 in 10.0 mi West 13.8 mph 23.0 mph N/A   Partly Cloudy
1:56 PM 64.0 °F - 43.0 °F 46% 29.78 in 10.0 mi West 15.0 mph 24.2 mph N/A   Scattered Clouds
2:56 PM 63.0 °F - 30.9 °F 30% 29.81 in 10.0 mi West 16.1 mph 31.1 mph N/A   Clear
3:56 PM 60.1 °F - 37.0 °F 42% 29.85 in 10.0 mi West 16.1 mph 20.7 mph N/A   Clear
4:56 PM 54.0 °F - 32.0 °F 43% 29.91 in 10.0 mi WNW 13.8 mph 23.0 mph N/A   Clear
5:56 PM 51.1 °F - 30.9 °F 46% 29.97 in 10.0 mi WNW 15.0 mph 23.0 mph N/A   Clear
6:56 PM 48.9 °F - 30.9 °F 50% 30.01 in 10.0 mi WNW 10.4 mph 17.3 mph N/A   Clear
7:56 PM 48.0 °F - 28.9 °F 48% 30.05 in 10.0 mi NW 12.7 mph 21.9 mph N/A   Clear
8:56 PM 46.9 °F - 28.0 °F 48% 30.07 in 10.0 mi WNW 10.4 mph 17.3 mph N/A   Clear
9:56 PM 45.0 °F 40.1 °F 28.9 °F 53% 30.09 in 10.0 mi West 9.2 mph - N/A   Clear
10:56 PM 44.1 °F 37.4 °F 28.0 °F 53% 30.11 in 10.0 mi WNW 13.8 mph 24.2 mph N/A   Clear
11:56 PM 42.1 °F 36.1 °F 25.0 °F 51% 30.11 in 10.0 mi WNW 10.4 mph - N/A   Clear